[[{"header":{"parameterUnit":"m.s-1","parameterCategory":1,"la1":30.2991,"la2":30.254,"lo1":-89.0895,"lo2":-89.0444,"dy":0.0017,"dx":0.0017,"nx":28,"ny":28,"refTime":"2025-05-27T21:00:00:Z","depth":0,"parameterNumber":2,"parameterNumberName":"U-component_of_WINDS"},"data":[0,0,0,0,0,0,0,0,0,0,0,0,0,0,0,0,0,0,0,0,0,0,0,0,0,0,0,0,0,0,0,0,0,0,0,0,0,0,0,0,0,0,0,0,0,0,0,0,0,0,0,0,0,0,0,0,0,0,4.4117,4.4116,0,4.3965,4.3964,4.3962,4.3755,4.3752,4.3748,4.3745,4.3599,4.3598,4.3598,0,0,0,0,0,0,0,0,0,0,0,0,0,4.4234,4.4233,4.4118,4.4116,4.4114,4.3966,4.3964,4.3961,4.3756,4.3751,4.3747,4.3743,4.3599,4.3598,4.3598,0,0,0,0,0,0,0,0,0,0,0,0,0,4.4144,4.4233,4.4118,4.3993,4.398,4.3966,4.3963,4.3961,4.3757,4.3751,4.3746,4.3741,4.3599,4.3599,4.3598,4.3697,0,0,4.3595,4.3594,0,0,0,0,0,0,0,0,4.4149,4.414,4.4013,4.4001,4.3987,4.3873,4.3951,4.3873,4.3758,4.3842,4.3745,4.3739,4.3695,4.3686,4.3669,4.369,4.3684,4.3595,4.3594,4.3594,4.3593,0,0,0,0,0,0,0,4.4156,4.4145,4.4057,4.4012,4.3996,4.3946,4.3927,4.3935,4.38,4.3834,4.3819,4.3803,4.3687,4.3671,4.3665,4.3682,4.3595,4.3594,4.3593,4.3593,4.3769,4.3774,0,0,0,0,0,0,4.4179,4.4152,4.4062,4.4053,4.4056,4.3948,4.3927,4.3916,4.3799,4.3776,4.3808,4.3794,4.3675,4.3666,4.3659,4.3761,4.3594,4.3593,4.3592,4.3764,4.377,4.3776,0,0,0,0,0,0,4.4183,4.4173,4.4068,4.4098,4.4081,4.3952,4.394,4.3915,4.3898,4.3779,4.3755,4.3815,4.3671,4.366,4.3686,4.3754,4.3592,4.3592,4.3758,4.3766,4.3773,4.3973,0,0,0,0,0,0,4.4187,4.4176,4.4211,4.41,4.408,4.4098,4.3944,4.3916,4.3896,4.3877,4.378,4.3759,4.3666,4.3689,4.3686,4.375,4.3591,4.3751,4.3761,4.3771,4.3959,4.3986,4.4009,0,0,0,0,0,4.4192,4.4277,4.4214,4.4205,4.4121,4.4102,4.4091,4.3979,4.3903,4.3937,4.386,4.3762,4.3748,4.3694,4.3688,4.3753,4.3746,4.3758,4.377,4.3948,4.3981,4.4009,0,0,0,0,0,0,4.4404,4.426,4.4189,4.424,4.4185,4.4067,4.4108,4.4018,4.3986,4.3969,4.3835,4.3815,4.3857,4.3808,4.375,4.3839,4.3732,4.3743,4.387,4.39,4.3924,4.3934,4.359,0,0,0,0,0,4.4456,4.4451,4.4327,4.4384,4.4359,4.4239,4.4227,4.4144,4.4083,4.4059,4.3984,4.393,4.3912,4.3904,4.3882,4.3952,4.3926,4.3994,4.4019,4.404,4.405,4.4079,4.4106,4.3815,4.3815,4.3814,0,0,4.4565,4.4486,4.4492,4.4424,4.4371,4.4369,4.4221,4.4226,4.4223,4.4061,4.4078,4.4022,4.3953,4.4,4.4017,4.396,4.4125,4.4055,4.4072,4.4071,4.4094,4.4121,4.4146,4.3823,4.3821,4.382,0,0,4.4761,4.4702,4.4739,4.4688,4.4608,4.4527,4.4537,4.4432,4.4386,4.4401,4.4277,4.4274,4.4248,4.4201,4.4175,4.4348,4.4256,4.4345,4.4475,4.4504,4.4527,4.4547,4.4604,4.4627,4.4357,4.4357,4.4358,0,4.4907,4.4896,4.4772,4.4782,4.4755,4.4604,4.4641,4.4599,4.4518,4.4503,4.444,4.4399,4.4343,4.4374,4.4415,4.4401,4.4406,4.4355,4.4533,4.4552,4.4568,4.4622,4.4644,4.4368,4.4367,4.4366,4.4365,0,4.5077,4.5072,4.5113,4.5031,4.501,4.5035,4.4914,4.4907,4.4827,4.4753,4.4768,4.4694,4.4651,4.4654,4.4578,4.4674,4.464,4.4558,4.4446,4.4609,4.4657,4.4677,4.4384,4.438,4.4377,4.4374,0,0,4.5402,4.5249,4.5266,4.5225,4.5124,4.5118,4.5136,4.5089,4.5084,4.5034,4.5043,4.5022,4.4943,4.4913,4.483,4.4856,4.4992,4.4769,4.4765,4.481,4.5088,4.5148,4.5174,4.4931,4.4934,4.4937,4.5092,0,4.5575,4.5592,4.5479,4.5527,4.5518,4.5373,4.5387,4.5328,4.5258,4.5242,4.5167,4.5151,4.5051,4.5031,4.505,4.4972,4.5046,4.4959,4.4937,4.4938,4.4955,4.5199,4.5263,4.5413,4.5111,4.5114,4.5116,0,4.5779,4.5733,4.5779,4.567,4.5663,4.5678,4.5623,4.5611,4.5539,4.5486,4.545,4.5353,4.5362,4.5258,4.5267,4.5211,4.5195,4.5155,4.5158,4.515,4.5035,4.5194,4.5459,4.548,4.5145,4.5143,4.5141,0,4.6006,4.5957,4.5975,4.5946,4.5822,4.5834,4.5784,4.5707,4.5685,4.5639,4.5623,4.5582,4.5558,4.5528,4.5422,4.5356,4.5442,4.533,4.5397,4.54,4.542,4.542,4.5683,4.5417,4.5417,4.5417,4.5416,0,4.6208,4.6241,4.6074,4.6086,4.6117,4.5988,4.6023,4.5959,4.5891,4.5887,4.5762,4.5762,4.5623,4.5608,4.5526,4.5543,4.5535,4.5492,4.5469,4.5501,4.5506,4.5487,4.5472,4.5422,4.5421,4.542,4.5419,0,4.6465,4.6356,4.6366,4.6246,4.6216,4.6245,4.6142,4.6148,4.6069,4.6066,4.6058,4.5936,4.5911,4.5802,4.5753,4.5697,4.5741,4.5699,4.5764,4.5749,4.582,4.5813,4.6078,4.6104,4.5826,4.5829,4.5832,0,4.66,4.662,4.6501,4.6487,4.6441,4.6423,4.6398,4.6272,4.6252,4.6169,4.6185,4.6148,4.6112,4.6079,4.5986,4.5947,4.59,4.5995,4.5894,4.5923,4.5896,4.5894,4.5894,4.6017,4.6021,4.6024,4.6026,0,4.6848,4.6792,4.6759,4.6708,4.6681,4.6635,4.6582,4.6579,4.6438,4.6422,4.6392,4.6364,4.631,4.6275,4.6219,4.6168,4.6073,4.6059,4.6071,4.6102,4.6137,4.6114,4.582,4.6053,4.605,4.6048,4.6047,4.6046,4.7044,4.7053,4.6969,4.6937,4.6883,4.6835,4.6832,4.6752,4.6724,4.6668,4.6596,4.6575,4.6499,4.6414,4.637,4.6351,4.6299,4.6319,4.6323,4.6328,4.6342,4.6143,4.6342,4.6341,4.634,4.6339,4.6338,0,4.7281,4.7219,4.7191,4.7117,4.7092,4.7003,4.6938,4.6923,4.6904,4.6841,4.6806,4.6771,4.6735,4.6639,4.6593,4.6597,4.6552,4.6589,4.6586,4.6575,4.6394,4.6386,4.6626,4.6626,4.6626,4.6626,4.6626,4.6625,4.7401,4.7411,4.7345,4.7326,4.7263,4.7238,4.7209,4.7164,4.7112,4.7076,4.7044,4.6981,4.6903,4.6851,4.6814,4.6786,4.6774,4.6824,4.6783,4.6616,4.6588,4.6562,4.6552,4.6824,4.6824,4.6963,4.6965,4.6966]},{"header":{"parameterUnit":"m.s-1","parameterCategory":1,"la1":30.2991,"la2":30.254,"lo1":-89.0895,"lo2":-89.0444,"dy":0.0017,"dx":0.0017,"nx":28,"ny":28,"refTime":"2025-05-27T21:00:00:Z","depth":0,"parameterNumber":3,"parameterNumberName":"V-component_of_WINDS"},"data":[0,0,0,0,0,0,0,0,0,0,0,0,0,0,0,0,0,0,0,0,0,0,0,0,0,0,0,0,0,0,0,0,0,0,0,0,0,0,0,0,0,0,0,0,0,0,0,0,0,0,0,0,0,0,0,0,0,0,5.1248,5.1251,0,5.1542,5.1546,5.1549,5.1381,5.1373,5.1365,5.1357,5.1667,5.1682,5.1698,0,0,0,0,0,0,0,0,0,0,0,0,0,5.0543,5.0556,5.1248,5.1252,5.1255,5.1542,5.1546,5.155,5.1383,5.1373,5.1363,5.1353,5.1662,5.168,5.17,0,0,0,0,0,0,0,0,0,0,0,0,0,5.0844,5.0561,5.1247,5.1206,5.1205,5.1541,5.1546,5.1551,5.1385,5.1373,5.136,5.1349,5.1655,5.1679,5.1702,5.2097,0,0,5.1775,5.1786,0,0,0,0,0,0,0,0,5.0828,5.0871,5.1209,5.121,5.1209,5.1412,5.141,5.1734,5.1388,5.1317,5.1357,5.1343,5.1593,5.1621,5.1704,5.2112,5.2125,5.1777,5.1792,5.1802,5.1809,0,0,0,0,0,0,0,5.0807,5.0857,5.1364,5.1214,5.1214,5.1174,5.1203,5.1471,5.1521,5.1322,5.1311,5.1348,5.1591,5.1681,5.171,5.2129,5.1777,5.1798,5.1813,5.1822,5.2866,5.2879,0,0,0,0,0,0,5.0788,5.0841,5.1355,5.1373,5.0984,5.1196,5.1229,5.136,5.1518,5.153,5.1358,5.1339,5.1646,5.1682,5.172,5.2185,5.1802,5.1824,5.1838,5.2853,5.2869,5.2884,0,0,0,0,0,0,5.0774,5.0836,5.1343,5.1104,5.1165,5.1222,5.137,5.1372,5.1462,5.1544,5.1553,5.1441,5.1638,5.1686,5.2002,5.2194,5.1835,5.1857,5.2837,5.2858,5.2876,5.3124,0,0,0,0,0,0,5.0754,5.0831,5.0982,5.1109,5.1179,5.1621,5.1382,5.1387,5.1503,5.1481,5.1624,5.1636,5.1632,5.1967,5.2025,5.222,5.1875,5.282,5.2846,5.287,5.3099,5.315,5.3194,0,0,0,0,0,5.073,5.1044,5.0991,5.1054,5.1368,5.1632,5.1672,5.1658,5.1519,5.167,5.1721,5.1632,5.2164,5.2001,5.2065,5.227,5.2808,5.2839,5.2868,5.3077,5.314,5.3193,0,0,0,0,0,0,5.0943,5.106,5.1002,5.1367,5.149,5.1603,5.1794,5.1727,5.1894,5.1867,5.1845,5.1879,5.2205,5.227,5.2086,5.2656,5.2464,5.2509,5.2601,5.2661,5.2708,5.2684,5.1895,0,0,0,0,0,5.1032,5.1235,5.1327,5.164,5.1704,5.1739,5.1854,5.1831,5.1959,5.2011,5.2086,5.2216,5.241,5.254,5.2725,5.3108,5.3133,5.328,5.3327,5.3366,5.3404,5.3602,5.3667,5.2983,5.2982,5.2982,0,0,5.1219,5.1308,5.1438,5.1685,5.1777,5.1987,5.1784,5.2017,5.2172,5.2048,5.2347,5.2407,5.2549,5.2897,5.3055,5.2961,5.3598,5.3404,5.3435,5.3452,5.364,5.3705,5.3762,5.3003,5.2999,5.2996,0,0,5.1664,5.1755,5.2021,5.2116,5.2258,5.2278,5.2342,5.2464,5.2497,5.2797,5.2705,5.289,5.3229,5.3331,5.3428,5.3905,5.3826,5.3967,5.4214,5.4408,5.4461,5.4509,5.4673,5.4732,5.4005,5.4005,5.4006,0,5.1879,5.219,5.2167,5.2404,5.2512,5.2406,5.2673,5.2768,5.2965,5.3042,5.2934,5.335,5.344,5.3806,5.3921,5.4006,5.4074,5.3949,5.4455,5.4503,5.4547,5.4702,5.4765,5.4021,5.4019,5.4018,5.4016,0,5.2443,5.2661,5.2859,5.3044,5.3176,5.3429,5.3442,5.3578,5.3543,5.3574,5.3877,5.3979,5.4178,5.4265,5.4237,5.4626,5.4562,5.4457,5.4263,5.4628,5.4773,5.4833,5.4043,5.4038,5.4033,5.4029,0,0,5.3033,5.3198,5.3271,5.335,5.3496,5.3663,5.3909,5.41,5.4214,5.4353,5.4554,5.484,5.4739,5.4849,5.4831,5.5002,5.5364,5.4873,5.4876,5.4955,5.5791,5.5866,5.5936,5.5313,5.5325,5.5334,5.5776,0,5.3482,5.3907,5.389,5.4287,5.4484,5.4383,5.4595,5.4707,5.4742,5.4913,5.4952,5.5152,5.5008,5.5072,5.5237,5.5285,5.553,5.5253,5.5498,5.5507,5.546,5.6013,5.6095,5.6508,5.5834,5.5844,5.5851,0,5.4063,5.4214,5.463,5.4739,5.4821,5.5012,5.5182,5.5349,5.5472,5.5484,5.5603,5.5555,5.5801,5.5603,5.5938,5.575,5.5849,5.5887,5.5902,5.5921,5.5698,5.6041,5.664,5.67,5.5942,5.5934,5.5928,0,5.4442,5.4751,5.5036,5.5109,5.5246,5.5382,5.5445,5.5556,5.5669,5.5819,5.5891,5.607,5.6166,5.6304,5.6304,5.6161,5.6642,5.6445,5.6656,5.6656,5.6759,5.6752,5.7377,5.6833,5.6831,5.683,5.6829,0,5.4942,5.5198,5.5207,5.5383,5.5665,5.5644,5.5924,5.5974,5.6072,5.6254,5.6181,5.6353,5.6345,5.652,5.6522,5.6795,5.6842,5.6856,5.6853,5.686,5.6857,5.6922,5.6891,5.6847,5.6843,5.684,5.6837,0,5.5411,5.5429,5.5732,5.5835,5.5867,5.607,5.6157,5.6323,5.6349,5.6579,5.6632,5.6674,5.6875,5.6889,5.7124,5.7124,5.7453,5.7422,5.7411,5.7403,5.761,5.7588,5.8295,5.8384,5.7787,5.7793,5.7797,0,5.5726,5.592,5.6042,5.6157,5.6227,5.6415,5.6528,5.6514,5.6635,5.6786,5.6933,5.7125,5.7278,5.7603,5.7654,5.7831,5.7799,5.8035,5.7826,5.7824,5.7795,5.7781,5.7797,5.8074,5.8081,5.8086,5.8091,0,5.6281,5.6278,5.6444,5.6613,5.6749,5.6882,5.7006,5.7104,5.7104,5.7244,5.7446,5.7564,5.7799,5.799,5.8161,5.8226,5.8158,5.8156,5.8213,5.822,5.8202,5.8207,5.7515,5.8139,5.8134,5.8131,5.8128,5.8126,5.6678,5.6842,5.6952,5.7138,5.7228,5.7344,5.7501,5.7545,5.7713,5.7901,5.7883,5.8105,5.8218,5.844,5.8518,5.869,5.861,5.8695,5.8715,5.8735,5.8753,5.8178,5.8723,5.8721,5.872,5.8719,5.8718,0,5.7222,5.7287,5.7458,5.763,5.7776,5.7697,5.7828,5.7954,5.815,5.826,5.841,5.864,5.8822,5.8886,5.9063,5.9189,5.9162,5.9236,5.9224,5.9238,5.8818,5.8748,5.9254,5.9254,5.9254,5.9254,5.9254,5.9253,5.7522,5.7794,5.7804,5.8118,5.8181,5.8396,5.8477,5.8581,5.8668,5.8926,5.9076,5.9116,5.9206,5.9388,5.9551,5.9565,5.9631,5.9717,5.9717,5.9323,5.9269,5.9217,5.9151,5.9733,5.9734,6.0122,6.0126,6.0128]}]]